www.pogodaiklimat.ru

Погода и климат >> Архив погоды >> Мексика >> Altar Son


ПОГОДА в Altar Son

  • Прогноз погоды в Altar Son
  • Монитор погоды в Altar Son
  • Климат города

АРХИВ ПОГОДЫ в Altar Son

Время (UTC), дата Ветер
(напр.,м/с)
 
Видим.   Явления Облачность Т
(С)
Тd
(С)
f
(%)
Тe
(С)
Тes
(С)
Комфортность P
(гПа)
Po
(гПа)
Тmin
(С)
Tmax
(С)
R
(мм)
S
(см)
03 21.03 ЮЗ 1 10 км ясно +29.4 +8.4 27 +29 +29 жарко 1009.5 965.4
12 21.03 СВ 1 20 км ясно +16.0 +4.7 47 +17 +17 1012.0 965.5 +15.8 +37.1
15 21.03 СВ 1 30 км ясно +16.8 +5.4 47 +18 +21 1013.6 967.5
18 21.03 Ю 1 30 км ясно +29.4 +9.5 29 +29 +46 жарко 1013.0 967.7 +14.6 +29.5
21 21.03 З 2 30 км ясно +33.4 +6.8 19 +31 +46 жарко 1009.4 964.7
00 22.03 З 3 30 км ясно +31.6 +9.4 25 +31 +33 жарко 1009.3 964.8 +14.6 +34.5
03 22.03 З 1 10 км ясно +25.8 +9.4 35 +26 +26 жарко 1009.2 964.7
12 22.03 СВ 1 20 км ясно +14.8 +4.3 49 +15 +15 1011.9 965.0 +14.6 +34.5
15 22.03 СВ 1 20 км ясно +14.8 +4.3 49 +15 +19 1011.9 965.0 +14.6 +34.5
21 22.03 З 2 30 км ясно +28.4 +8.9 29 +28 +43 жарко 1010.1 964.8
00 23.03 З 6 30 км ясно +29.4 +11.9 34 +30 +31 жарко 1007.9 963.1 +12.0 +30.4
03 23.03 З 1 10 км ясно +22.8 +12.5 52 +26 +26 жарко 1008.8 963.9
12 23.03 ЮЗ 2 20 км ясно +15.6 +10.8 73 +16 +16 1011.5 965.0 +15.5 +30.4
15 23.03 Ю 2 30 км 9/0 2000 м
[Ac trans]
+16.0 +11.2 73 +16 +17 1011.7 965.6
18 23.03 Ю 1 30 км ясно +19.2 +7.3 46 +21 +38 комфорт 1014.1 968.1 +14.6 +19.4
21 23.03 ЮЗ 4 30 км ясно +21.2 +8.6 44 +22 +32 комфорт 1014.1 968.3
00 24.03 ЮЗ 3 30 км ясно +21.6 +9.8 47 +23 +25 комфорт 1013.9 968.2 +14.6 +22.9
03 24.03 З 3 10 км ясно +18.0 +6.1 46 +18 +18 1014.8 969.1
15 24.03 СВ 1 30 км ясно +8.0 +8.3 100 +7 +10 1020.9 973.1
18 24.03 ЮВ 1 30 км ясно +21.2 +13.2 60 +24 +41 комфорт 1020.0 973.6 +6.0 +21.5
21 24.03 Ю 1 30 км ясно +25.0 +9.7 38 +26 +43 жарко 1019.1 973.1
00 25.03 ЮЗ 1 30 км ясно +28.0 +13.0 40 +30 +33 жарко 1018.0 972.2 +6.0 +28.5
03 25.03 С 1 20 км ясно +23.0 +8.1 38 +24 +24 комфорт 1017.0 971.5
15 25.03 ЮВ 1 30 км ясно +9.0 +6.0 81 +8 +12 1015.3 968.1
18 25.03 Ю 1 30 км ясно +21.2 +13.2 60 +24 +41 комфорт 1014.5 967.7 +7.0 +21.5
21 25.03 ЮЗ 1 30 км ясно +28.0 +13.0 40 +30 +47 жарко 1013.0 967.0
00 26.03 З 1 30 км ясно +29.4 +11.9 34 +30 +33 жарко 1012.0 966.1 +7.0 +30.0
03 26.03 С 1 20 км ясно +23.0 +8.1 38 +24 +24 комфорт 1011.0 965.4
15 26.03 СВ 1 30 км ясно +12.0 +7.1 72 +12 +16 1012.0 966.2
18 26.03 В 1 30 км ясно +21.2 +13.2 60 +24 +41 комфорт 1011.0 965.8 +12.0 +21.5
21 26.03 Ю 1 30 км ясно +27.0 +9.2 33 +27 +45 жарко 1010.0 965.5
00 27.03 ЮЗ 1 30 км ясно +29.0 +12.2 35 +30 +33 жарко 1009.0 965.0 +10.0 +29.5
03 27.03 С 1 20 км ясно +23.0 +8.1 38 +24 +24 комфорт 1008.0 964.5
12 27.03 СВ 1 10 км ясно +12.8 +4.7 58 +13 +13 1011.2 964.7 +12.8 +29.0
15 27.03 СВ 1 30 км ясно +12.6 +8.6 77 +13 +16 1011.8 965.3
18 27.03 Ю 1 30 км ясно +25.2 +9.7 38 +26 +44 жарко 1011.1 965.3 +11.8 +25.2
21 27.03 ЮЗ 2 30 км ясно +28.2 +5.8 24 +27 +42 жарко 1009.9 962.8
00 28.03 Ю 2 30 км ясно +28.2 +6.9 26 +27 +30 жарко 1004.9 960.9 +11.8 +29.0

 

Местоположение метеостанции Altar Son (Мексика): широта 30.71 долгота -111.84 высота над уровнем моря 397 м.

В архиве по умолчанию представлена погода в Altar Son за последнюю неделю. Архивные данные за месяц целиком и за предыдущие месяцы, начиная с января 2011 года, Вы можете получить, выбрав интересующий диапазон дат из раскрывающегося списка и нажав кнопку "Ввод!".

Внимание! Время в таблицах - всемирное. Для получения местного времени необходимо прибавить поправку, которая в Altar Son равна -8 ч.

Смотрите также архив погоды в соседних городах и на ближайших метеорологических станциях:

Погода в Puerto Penasco (Мексика) (176 км)
Погода в Hermosillo (Мексика) (196 км)
Погода в Hermosillo la Magna (Мексика) (201 км)
Погода в Pilares de Nacoz (Мексика) (210 км)
Погода в San Felipe (Мексика) (285 км)
Погода в Guaymas Upper Air Site (Мексика) (324 км)
Погода в Empalme (Мексика) (326 км)
Погода в Ejido Nuevo Leon (Мексика) (362 км)
Погода в Nueva Casas Grandes (Мексика) (379 км)
Погода в Santa Rosalia (Мексика) (384 км)

Пояснения к столбцам:

Ветер - указаны скорость ветра в м/с - средняя за 10 мин, порывы в срок и между сроками (в фигурных скобках) и направление, откуда дует ветер: С - северный, СВ - северо-восточный, В - восточный, ЮВ - юго-восточный, Ю - южный, ЮЗ - юго-западный, З - западный, СЗ - северо-западный.
Видимость - горизонтальная дальность видимости в метрах или километрах. При видимости от 1 до 10 км при отсутствии осадков обычно наблюдается дымка, при ухудшении видимости до 1 км и менее - туман. В сухую погоду видимость может ухудшаться дымом, пылью или мглою.
Явления - указаны атмосферные явления, наблюдавшиеся в срок или в последний час перед сроком; фигурными скобками обозначены явления, наблюдавшиеся между сроками (за 1-3 часа до срока); квадратными скобками обозначены град или гололедные отложения с указанием их диаметра в мм.
Облачность - указаны через наклонную черту общая и нижняя облачность в баллах и высота нижней границы облаков в метрах; квадратными скобками обозначены формы облаков: Ci - перистые, Cs - перисто-слоистые, Cc - перисто-кучевые, Ac - высококучевые, As - высокослоистые, Sc - слоисто-кучевые, Ns - слоисто-дождевые, Cu - кучевые, Cb - кучево-дождевые. Подробнее классификацию облаков см. в Атласе облаков (PDF).
T - Температура воздуха - температура, измеренная на высоте 2 м над землей.
Td - Температура точки росы - температура, при понижении до которой содержащийся в воздухе водяной пар достигнет насыщения.
f - Относительная влажность воздуха - влажноcть воздуха, измеренная на высоте 2 м над землей.
Te - Эффективная температура - температура, которую ощущает одетый по сезону человек в тени. Характеристика душности погоды. При расчете учитывается влияние влажности воздуха и скорости ветра на теплоощущения человека.
Tes - Эффективная температура на солнце - температура, которую ощущает человек, с поправкой на солнечный нагрев. Характеристика знойности погоды. Зависит от высоты солнца над горизонтом, облачности и скорости ветра. Ночью, в пасмурную погоду, а также при ветре 12 м/с и более поправка равна нулю.
P - Атмосферное давление - приведенное к уровню моря атмосферное давление.
Po - Атмосферное давление - измеренное на уровне метеостанции атмосферное давление.
Tmin - Минимальная температура - минимум температуры воздуха на высоте 2 м над землей.
Tmax - Максимальная температура - максимум температуры воздуха на высоте 2 м над землей.
R - Количество осадков - Количество выпавших осадков, мм. При наведении курсора мыши на число - период времени, за который выпало указанное количество осадков.
S - Снежный покров - Высота снежного покрова, см. При наведении курсора мыши на число - состояние снежного покрова и степень покрытия местности в баллах.